Thursday, September 20, 2018, 4:22 PM EDT
Back to Local

KLGA, New York La Guardia Airport

Location: Astoria, NY, United States Lat: 40.783
Local Time: 4:22 PM EDT (20:22 GMT) Lon: -73.883
Time Zone: US/Eastern Elev: 22 ft

Show me the last for .
Show Decoded

2018-09-20 15:51 METAR KLGA 201951Z 04006KT 10SM FEW042 SCT060 23/14 A3020 RMK AO2 SLP227
                 T02280139 $ =
2018-09-20 14:51 METAR KLGA 201851Z 05006KT 10SM FEW025 SCT042 BKN060 22/13 A3021 RMK AO2 SLP231
                 T02170133 $ =
2018-09-20 13:51 METAR KLGA 201751Z 04007KT 10SM FEW025 OVC041 22/14 A3023 RMK AO2 SLP236
                 T02170139 10217 20189 58001 $ =
2018-09-20 12:51 METAR KLGA 201651Z 04007KT 10SM FEW025 OVC041 21/14 A3024 RMK AO2 SLP240
                 T02110139 $ =
2018-09-20 11:51 METAR KLGA 201551Z 04007KT 10SM FEW020 OVC037 20/14 A3024 RMK AO2 SLP241
                 T02000139 $ =
2018-09-20 10:51 METAR KLGA 201451Z 05005KT 10SM OVC036 21/13 A3023 RMK AO2 SLP237 T02060133
                 53013 $ =
2018-09-20 09:51 METAR KLGA 201351Z 07006KT 10SM FEW021 OVC031 19/13 A3022 RMK AO2 SLP233
                 T01940133 $ =
2018-09-20 08:51 METAR KLGA 201251Z 09010KT 10SM FEW022 BKN032 OVC050 19/13 A3020 RMK AO2 SLP225
                 T01940133 $ =
2018-09-20 07:51 METAR KLGA 201151Z 07008KT 10SM FEW022 OVC030 19/13 A3019 RMK AO2 SLP224
                 T01890133 10200 20189 53027 $ =
2018-09-20 07:22 METAR KLGA 201122Z 08008KT 10SM OVC030 19/13 A3017 RMK AO2 T01890133 $ =
2018-09-20 06:51 METAR KLGA 201051Z 09008KT 10SM SCT022 OVC028 19/14 A3015 RMK AO2 SLP210
                 T01890139 $ =
2018-09-20 05:51 METAR KLGA 200951Z 09009KT 10SM OVC023 19/14 A3012 RMK AO2 SLP200 T01890139 $ =
2018-09-20 04:51 METAR KLGA 200851Z 09008KT 10SM OVC021 19/14 A3011 RMK AO2 SLP196 T01890139
                 53010 $ =
2018-09-20 03:51 METAR KLGA 200751Z 08009KT 10SM OVC020 19/14 A3010 RMK AO2 SLP192 T01940139 $ =
2018-09-20 02:51 METAR KLGA 200651Z 08009KT 10SM OVC021 19/14 A3009 RMK AO2 SLP189 T01940139 $ =
2018-09-20 01:51 METAR KLGA 200551Z 10011KT 10SM OVC019 20/16 A3008 RMK AO2 SLP187 60000
                 T02000156 10233 20200 53013 $ =
2018-09-20 00:51 METAR KLGA 200451Z 08008KT 10SM BKN021 OVC025 21/17 A3007 RMK AO2 RAE07 SLP181
                 P0000 T02060167 402780206 $ =
2018-09-19 23:51 METAR KLGA 200351Z 07008KT 10SM -RA OVC015 22/18 A3006 RMK AO2 RAB45 SLP178
                 P0000 T02170183 $ =
2018-09-19 23:44 METAR KLGA 200344Z 10006KT 10SM OVC015 22/18 A3006 RMK AO2 T02220178 $ =
2018-09-19 22:51 METAR KLGA 200251Z 13005KT 10SM FEW016 SCT019 OVC047 22/18 A3005 RMK AO2 SLP174
                 T02220178 51025 $ =
2018-09-19 22:44 METAR KLGA 200244Z 15006KT 10SM FEW016 SCT019 OVC047 22/18 A3004 RMK AO2
                 T02220178 $ =
2018-09-19 21:51 METAR KLGA 200151Z 12007KT 10SM BKN016 BKN038 23/18 A3003 RMK AO2 SLP167
                 T02280183 $ =
2018-09-19 20:51 METAR KLGA 200051Z 15007KT 10SM BKN017 BKN028 BKN055 23/19 A3000 RMK AO2 SLP159
                 T02280189 $ =
2018-09-19 19:51 METAR KLGA 192351Z 15008KT 10SM BKN017 BKN050 23/19 A2997 RMK AO2 SLP149
                 T02330194 10278 20233 51020 $ =
2018-09-19 19:09 METAR KLGA 192309Z VRB06KT 10SM BKN017 BKN050 24/19 A2996 RMK AO2 T02440194 $ =
2018-09-19 18:51 METAR KLGA 192251Z 06007KT 10SM FEW038 SCT055 SCT100 SCT250 24/19 A2995 RMK AO2
                 SLP143 T02440194 $ =
2018-09-19 17:51 METAR KLGA 192151Z 05007KT 10SM FEW041 SCT055 SCT100 SCT250 26/19 A2993 RMK AO2
                 SLP136 T02560189 $ =
2018-09-19 16:51 METAR KLGA 192051Z 06009KT 10SM FEW039 SCT055 SCT150 SCT250 26/19 A2991 RMK AO2
                 SLP129 T02610189 53003 $ =

Support USWX by starting your Amazon purchase here.